This is the latest recevied weather packets stored in our database for station/object KN6WGU. If no packets are shown the sender has not sent any weather packets the latest 10 day(s).
| Time | Temp. | Humidity | Pressure | Rain* | Wind** | Luminosity | Snow |
|---|---|---|---|---|---|---|---|
| 1778056075 | 7.22° C | 97% | 1001.5 hPa | 0 mm | - | 0 W/m² | - |
| 1778055770 | 7.78° C | 97% | 1001.6 hPa | 1.27 mm | - | 0 W/m² | - |
| 1778055468 | 7.78° C | 98% | 1001.7 hPa | 1.27 mm | - | 0 W/m² | - |
| 1778055165 | 7.78° C | 98% | 1001.5 hPa | 1.78 mm | - | 0 W/m² | - |
| 1778054863 | 7.78° C | 98% | 1001.5 hPa | 1.78 mm | - | 0 W/m² | - |
| 1778054559 | 7.78° C | 98% | 1001.8 hPa | 1.27 mm | - | 0 W/m² | - |
| 1778054257 | 7.78° C | 99% | 1002 hPa | 3.05 mm | - | 0 W/m² | - |
| 1778053954 | 7.78° C | 99% | 1001.8 hPa | 1.78 mm | - | 0 W/m² | - |
| 1778053651 | 7.78° C | 99% | 1001.9 hPa | 1.27 mm | - | 0 W/m² | - |
| 1778053348 | 7.78° C | 99% | 1001.9 hPa | 1.27 mm | - | 0 W/m² | - |
| 1778053047 | 7.78° C | 99% | 1001.8 hPa | 1.78 mm | - | 0 W/m² | - |
| 1778052743 | 7.78° C | 99% | 1001.7 hPa | 1.78 mm | - | 0 W/m² | - |
| 1778052440 | 7.78° C | 99% | 1001.9 hPa | 1.78 mm | - | 0 W/m² | - |
| 1778052138 | 7.78° C | 99% | 1001.4 hPa | 3.05 mm | - | 0 W/m² | - |
| 1778051835 | 7.78° C | 99% | 1001.4 hPa | 1.27 mm | - | 0 W/m² | - |
| 1778051533 | 7.78° C | 99% | 1001.7 hPa | 0 mm | - | 0 W/m² | - |
| 1778051230 | 7.78° C | 99% | 1001.6 hPa | 1.78 mm | - | 0 W/m² | - |
| 1778050927 | 7.78° C | 99% | 1001.9 hPa | 1.78 mm | - | 0 W/m² | - |
| 1778050625 | 7.78° C | 99% | 1001.9 hPa | 0 mm | - | 0 W/m² | - |
| 1778050321 | 7.78° C | 99% | 1001.7 hPa | 0 mm | - | 0 W/m² | - |
| 1778050018 | 7.78° C | 99% | 1001.6 hPa | 0 mm | - | 0 W/m² | - |
| 1778049714 | 8.33° C | 99% | 1001.6 hPa | 0 mm | - | 0 W/m² | - |
| 1778049412 | 8.33° C | 99% | 1001.6 hPa | 1.27 mm | - | 0 W/m² | - |
| 1778049109 | 8.33° C | 99% | 1001.4 hPa | 1.27 mm | - | 0 W/m² | - |
| 1778048807 | 7.78° C | 99% | 1001.3 hPa | 1.78 mm | - | 0 W/m² | - |
* Rain latest hour (hover to see other rain measurements)
** Current wind speed in m/s (hover to see current wind gust speed)